• In Kazakhstan
  • List of Countries
  • For 7 days
  • Water Temperature
  • Satellite Maps
  • Weather Map
  • News
  • Weather Widgets
  • user-avatar
    Login

    Hourly Weather Southport

    Today, 16 January, Wednesday

    Time Temperature Precipitation Wind Pressure Humidity
    00:00 +8°C° 0 mm 7 mps 754 mmHg 80%
    01:00 +8°C° 0 mm 7 mps 753 mmHg 80%
    02:00 +7°C° 0 mm 8 mps 753 mmHg 80%
    03:00 +9°C° 0 mm 8 mps 752 mmHg 80%
    04:00 +9°C° 0.1 mm 8 mps 751 mmHg 80%
    05:00 +8°C° 0.1 mm 9 mps 751 mmHg 80%
    06:00 +7°C° 0 mm 8 mps 750 mmHg 81%
    07:00 +7°C° 0.6 mm 8 mps 750 mmHg 82%
    08:00 +6°C° 0.6 mm 8 mps 750 mmHg 83%
    09:00 +6°C° 0.6 mm 8 mps 750 mmHg 85%
    10:00 +6°C° 0.4 mm 8 mps 750 mmHg 80%
    11:00 +6°C° 0.4 mm 8 mps 750 mmHg 76%
    12:00 +6°C° 0.4 mm 8 mps 750 mmHg 71%
    13:00 +6°C° 0.2 mm 8 mps 750 mmHg 69%
    14:00 +6°C° 0.2 mm 8 mps 749 mmHg 67%
    15:00 +5°C° 0.2 mm 8 mps 749 mmHg 65%
    16:00 +5°C° 0.4 mm 8 mps 749 mmHg 68%
    17:00 +5°C° 0.4 mm 7 mps 749 mmHg 70%
    18:00 +4°C° 0.4 mm 7 mps 749 mmHg 73%
    19:00 +4°C° 0.5 mm 7 mps 749 mmHg 74%
    20:00 +4°C° 0.5 mm 6 mps 750 mmHg 74%
    21:00 +4°C° 0.5 mm 6 mps 750 mmHg 74%
    22:00 +4°C° 0.3 mm 7 mps 750 mmHg 74%
    23:00 +4°C° 0.3 mm 7 mps 751 mmHg 74%

    Tomorrow, 17 January, Thursday

    Time Temperature Precipitation Wind Pressure Humidity
    00:00 +3°C° 0.3 mm 7 mps 752 mmHg 73%
    01:00 +2°C° 0.2 mm 8 mps 753 mmHg 73%
    02:00 +2°C° 0.2 mm 8 mps 754 mmHg 73%
    03:00 +1°C° 0.2 mm 8 mps 755 mmHg 73%
    04:00 0°C° 0 mm 8 mps 756 mmHg 68%
    05:00 0°C° 0 mm 8 mps 757 mmHg 63%
    06:00 -1°C° 0 mm 8 mps 758 mmHg 59%
    07:00 -1°C° 0 mm 8 mps 759 mmHg 58%
    08:00 -1°C° 0 mm 7 mps 760 mmHg 58%
    09:00 -1°C° 0 mm 7 mps 761 mmHg 58%
    10:00 0°C° 0 mm 7 mps 761 mmHg 55%
    11:00 +1°C° 0 mm 6 mps 762 mmHg 53%
    12:00 +2°C° 0 mm 6 mps 762 mmHg 51%
    13:00 +2°C° 0 mm 5 mps 762 mmHg 53%
    14:00 +3°C° 0 mm 4 mps 762 mmHg 56%
    15:00 +3°C° 0 mm 3 mps 762 mmHg 58%
    16:00 +3°C° 0 mm 3 mps 763 mmHg 59%
    17:00 +4°C° 0 mm 2 mps 763 mmHg 61%
    18:00 +4°C° 0 mm 1 mps 763 mmHg 62%
    19:00 +4°C° 0 mm 1 mps 763 mmHg 63%
    20:00 +3°C° 0 mm 2 mps 763 mmHg 64%
    21:00 +3°C° 0 mm 2 mps 763 mmHg 65%
    22:00 +2°C° 0 mm 3 mps 763 mmHg 66%
    23:00 +1°C° 0 mm 4 mps 763 mmHg 67%

    Day after tomorrow, 18 January, Friday

    Time Temperature Precipitation Wind Pressure Humidity
    00:00 0°C° 0 mm 4 mps 763 mmHg 67%
    01:00 0°C° 0 mm 5 mps 762 mmHg 66%
    02:00 -1°C° 0 mm 6 mps 762 mmHg 65%
    03:00 -1°C° 0 mm 6 mps 761 mmHg 63%
    04:00 -1°C° 0 mm 7 mps 761 mmHg 63%
    05:00 -2°C° 0 mm 7 mps 760 mmHg 63%
    06:00 -2°C° 0 mm 7 mps 759 mmHg 63%
    07:00 -2°C° 0.4 mm 8 mps 759 mmHg 65%
    08:00 -2°C° 0.4 mm 8 mps 758 mmHg 68%
    09:00 -3°C° 0.4 mm 9 mps 758 mmHg 71%
    10:00 -1°C° 1.6 mm 9 mps 757 mmHg 74%
    11:00 -2°C° 1.6 mm 10 mps 757 mmHg 78%
    12:00 0°C° 1.6 mm 10 mps 756 mmHg 81%
    13:00 0°C° 2 mm 10 mps 755 mmHg 84%
    14:00 0°C° 2 mm 9 mps 755 mmHg 87%
    15:00 +1°C° 2 mm 9 mps 754 mmHg 90%
    16:00 +1°C° 0.1 mm 8 mps 754 mmHg 92%
    17:00 +1°C° 0.1 mm 8 mps 754 mmHg 93%
    18:00 +3°C° 0.1 mm 7 mps 754 mmHg 95%
    19:00 +2°C° 0.1 mm 6 mps 754 mmHg 95%
    20:00 +2°C° 0.1 mm 6 mps 753 mmHg 96%
    21:00 +2°C° 0.1 mm 5 mps 753 mmHg 96%
    22:00 +2°C° 0 mm 5 mps 753 mmHg 96%
    23:00 +3°C° 0 mm 4 mps 753 mmHg 96%

    19 January, Saturday

    Time Temperature Precipitation Wind Pressure Humidity
    00:00 +3°C° 0 mm 4 mps 753 mmHg 96%
    01:00 +3°C° 0 mm 4 mps 752 mmHg 96%
    02:00 +3°C° 0 mm 4 mps 752 mmHg 96%
    03:00 +3°C° 0 mm 4 mps 752 mmHg 96%
    04:00 +2°C° 0 mm 3 mps 752 mmHg 95%
    05:00 +2°C° 0 mm 3 mps 752 mmHg 95%
    06:00 +2°C° 0 mm 3 mps 752 mmHg 94%
    07:00 +2°C° 0 mm 3 mps 752 mmHg 94%
    08:00 +2°C° 0 mm 3 mps 752 mmHg 94%
    09:00 +2°C° 0 mm 3 mps 752 mmHg 94%
    10:00 +2°C° 0 mm 3 mps 753 mmHg 92%
    11:00 +4°C° 0 mm 2 mps 753 mmHg 90%
    12:00 +5°C° 0 mm 2 mps 753 mmHg 89%
    13:00 +5°C° 0 mm 2 mps 753 mmHg 89%
    14:00 +5°C° 0 mm 2 mps 753 mmHg 89%
    15:00 +5°C° 0 mm 2 mps 753 mmHg 89%
    16:00 +4°C° 0 mm 2 mps 753 mmHg 89%
    17:00 +4°C° 0 mm 2 mps 754 mmHg 90%
    18:00 +3°C° 0 mm 2 mps 754 mmHg 91%
    19:00 +3°C° 0 mm 2 mps 755 mmHg 91%
    20:00 +3°C° 0 mm 2 mps 755 mmHg 91%
    21:00 +3°C° 0 mm 2 mps 756 mmHg 91%
    22:00 +2°C° 0 mm 2 mps 756 mmHg 91%
    23:00 +2°C° 0 mm 2 mps 757 mmHg 91%

    20 January, Sunday

    Time Temperature Precipitation Wind Pressure Humidity
    00:00 +2°C° 0 mm 2 mps 757 mmHg 91%
    01:00 +2°C° 0 mm 2 mps 758 mmHg 91%
    02:00 +2°C° 0 mm 2 mps 758 mmHg 91%
    03:00 +2°C° 0 mm 1 mps 758 mmHg 91%
    04:00 +1°C° 0 mm 2 mps 759 mmHg 90%
    05:00 +1°C° 0 mm 2 mps 759 mmHg 90%
    06:00 +1°C° 0 mm 2 mps 760 mmHg 90%
    07:00 +2°C° 0 mm 2 mps 761 mmHg 90%
    08:00 +2°C° 0 mm 2 mps 761 mmHg 89%
    09:00 +2°C° 0 mm 2 mps 762 mmHg 89%
    10:00 +2°C° 0 mm 3 mps 763 mmHg 87%
    11:00 +3°C° 0 mm 3 mps 763 mmHg 85%
    12:00 +4°C° 0 mm 3 mps 764 mmHg 83%
    13:00 +4°C° 0 mm 3 mps 764 mmHg 83%
    14:00 +4°C° 0 mm 4 mps 764 mmHg 84%
    15:00 +4°C° 0 mm 4 mps 765 mmHg 84%
    16:00 +3°C° 0 mm 4 mps 765 mmHg 84%
    17:00 +2°C° 0 mm 5 mps 766 mmHg 85%
    18:00 +1°C° 0 mm 5 mps 767 mmHg 85%
    19:00 +1°C° 0 mm 6 mps 768 mmHg 85%
    20:00 +1°C° 0 mm 6 mps 768 mmHg 85%
    21:00 0°C° 0 mm 7 mps 769 mmHg 84%
    22:00 +1°C° 0 mm 6 mps 770 mmHg 84%
    23:00 +1°C° 0 mm 5 mps 770 mmHg 83%

    21 January, Monday

    Time Temperature Precipitation Wind Pressure Humidity
    00:00 0°C° 0 mm 5 mps 770 mmHg 83%
    01:00 0°C° 0 mm 4 mps 771 mmHg 83%
    02:00 0°C° 0 mm 4 mps 771 mmHg 82%
    03:00 0°C° 0 mm 3 mps 771 mmHg 82%
    04:00 0°C° 0 mm 3 mps 771 mmHg 82%
    05:00 +1°C° 0 mm 2 mps 771 mmHg 82%
    06:00 +2°C° 0 mm 1 mps 771 mmHg 83%
    07:00 +2°C° 0 mm 1 mps 771 mmHg 82%
    08:00 +2°C° 0 mm 1 mps 771 mmHg 82%
    09:00 +1°C° 0 mm 0 mps 772 mmHg 81%
    10:00 +3°C° 0 mm 1 mps 771 mmHg 79%
    11:00 +3°C° 0 mm 2 mps 771 mmHg 76%
    12:00 +3°C° 0 mm 3 mps 771 mmHg 73%
    13:00 +3°C° 0 mm 4 mps 770 mmHg 73%
    14:00 +3°C° 0 mm 4 mps 769 mmHg 74%
    15:00 +2°C° 0 mm 5 mps 768 mmHg 74%
    16:00 +2°C° 0 mm 6 mps 767 mmHg 75%
    17:00 +2°C° 0 mm 7 mps 766 mmHg 77%
    18:00 +2°C° 0 mm 7 mps 765 mmHg 78%
    19:00 +1°C° 0.5 mm 8 mps 764 mmHg 79%
    20:00 +1°C° 0.5 mm 9 mps 763 mmHg 80%
    21:00 +2°C° 0.5 mm 10 mps 762 mmHg 81%
    22:00 +2°C° 2.2 mm 9 mps 761 mmHg 82%
    23:00 +3°C° 2.2 mm 9 mps 760 mmHg 83%
    Show more